Tracking 19249 objects as of 15-Oct-2018
HD Live streaming from Space Station
objects crossing your sky now

COSMOS 1884 (GLONASS)

Track COSMOS 1884 (GLONASS) now!
COSMOS 1884 (GLONASS) is classified as:


NORAD ID: 18356
Int'l Code: 1987-079B
Perigee: 19,091.0 km
Apogee: 19,182.9 km
Inclination: 65.7 °
Period: 675.7 minutes
Semi major axis: 25507 km
RCS: 0.8552 m2 (medium)
Launch date: September 16, 1987
Source: Commonwealth of Independent States (former USSR) (CIS)
Launch site: TYURATAM MISSILE AND SPACE COMPLEX (TTMTR)
SV:
aabbcc
Your satellite tracking list
Your tracking list is empty




NASA's NSSDC Master Catalog

Two Line Element Set (TLE):
1 18356U 87079B   18287.75736240 -.00000033  00000-0  00000+0 0  9990
2 18356  65.6693  52.5687 0018022 218.4471  49.7183  2.13102899242008
Source of the keplerian elements: AFSPC